EAG5520 SLCB-SPQU

Flight info

Callsign EAG5520
Flight time N/A
Altitude 34000
Route TEREP DCT GAVAR
Aircraft B38M/M-SDE1FGHILORVWXY/HB1

Departure

Time 2026-04-26 15:27
Airport Jorge Wilsterman International Airport (SLCB)

Arrival

Time N/A
Airport Rodríguez Ballón International Airport (SPQU)
Time Latitude Longitude Altitude Speed Heading
2026-04-26 15:05 -17.41558 -66.17981 8364 ft 1 kts 59°
2026-04-26 15:15 -17.41557 -66.17978 8391 ft 2 kts 59°
2026-04-26 15:15 -17.41557 -66.17967 8364 ft 7 kts 103°
2026-04-26 15:15 -17.41571 -66.17947 8364 ft 1 kts 136°
2026-04-26 15:16 -17.41575 -66.17944 8364 ft 0 kts 136°
2026-04-26 15:16 -17.41584 -66.17935 8364 ft 9 kts 140°
2026-04-26 15:16 -17.41641 -66.17924 8364 ft 9 kts 196°
2026-04-26 15:16 -17.41700 -66.17927 8363 ft 9 kts 150°
2026-04-26 15:17 -17.41730 -66.17895 8364 ft 3 kts 132°
2026-04-26 15:17 -17.41736 -66.17889 8363 ft 2 kts 132°
2026-04-26 15:17 -17.41737 -66.17888 8363 ft 0 kts 132°
2026-04-26 15:17 -17.41738 -66.17887 8363 ft 1 kts 132°
2026-04-26 15:18 -17.41760 -66.17861 8363 ft 8 kts 131°
2026-04-26 15:18 -17.41808 -66.17805 8363 ft 12 kts 132°
2026-04-26 15:18 -17.41878 -66.17722 8364 ft 17 kts 133°
2026-04-26 15:18 -17.41973 -66.17615 8364 ft 23 kts 133°
2026-04-26 15:19 -17.42083 -66.17488 8364 ft 23 kts 132°
2026-04-26 15:19 -17.42188 -66.17365 8364 ft 21 kts 131°
2026-04-26 15:19 -17.42268 -66.17269 8363 ft 17 kts 131°
2026-04-26 15:19 -17.42336 -66.17186 8363 ft 15 kts 130°
2026-04-26 15:20 -17.42410 -66.17110 8363 ft 15 kts 133°
2026-04-26 15:20 -17.42483 -66.17027 8363 ft 16 kts 133°
2026-04-26 15:20 -17.42538 -66.16995 8363 ft 2 kts 173°
2026-04-26 15:20 -17.42542 -66.16993 8363 ft 4 kts 171°
2026-04-26 15:21 -17.42576 -66.17009 8363 ft 6 kts 219°
2026-04-26 15:21 -17.42602 -66.17032 8363 ft 0 kts 219°
2026-04-26 15:21 -17.42607 -66.17035 8363 ft 1 kts 219°
2026-04-26 15:21 -17.42614 -66.17041 8363 ft 0 kts 218°
2026-04-26 15:23 -17.42615 -66.17042 8363 ft 0 kts 218°
2026-04-26 15:23 -17.42620 -66.17046 8363 ft 2 kts 218°
2026-04-26 15:23 -17.42651 -66.17055 8363 ft 10 kts 183°
2026-04-26 15:23 -17.42730 -66.17003 8364 ft 16 kts 137°
2026-04-26 15:24 -17.42809 -66.16918 8364 ft 17 kts 133°
2026-04-26 15:24 -17.42886 -66.16828 8365 ft 16 kts 131°
2026-04-26 15:24 -17.42960 -66.16740 8366 ft 15 kts 136°
2026-04-26 15:24 -17.43042 -66.16672 8365 ft 13 kts 126°
2026-04-26 15:25 -17.43044 -66.16652 8365 ft 0 kts 52°
2026-04-26 15:25 -17.43041 -66.16652 8365 ft 1 kts 15°
2026-04-26 15:25 -17.43025 -66.16661 8365 ft 1 kts 312°
2026-04-26 15:25 -17.43023 -66.16663 8365 ft 0 kts 313°
2026-04-26 15:26 -17.42940 -66.16759 8366 ft 51 kts 313°
2026-04-26 15:26 -17.42542 -66.17217 8363 ft 117 kts 313°
2026-04-26 15:26 -17.41869 -66.17991 8364 ft 169 kts 311°
2026-04-26 15:26 -17.41010 -66.18935 8719 ft 187 kts 318°
2026-04-26 15:27 -17.40040 -66.19861 9467 ft 191 kts 314°
2026-04-26 15:27 -17.39203 -66.20958 10210 ft 197 kts 306°
2026-04-26 15:27 -17.38421 -66.22216 10678 ft 216 kts 292°
2026-04-26 15:27 -17.38234 -66.23822 11144 ft 234 kts 260°
2026-04-26 15:28 -17.38845 -66.25476 11622 ft 253 kts 243°
2026-04-26 15:28 -17.39592 -66.27225 12022 ft 275 kts 245°
2026-04-26 15:28 -17.40760 -66.28857 12564 ft 284 kts 218°
2026-04-26 15:28 -17.42487 -66.29849 13414 ft 284 kts 203°
2026-04-26 15:29 -17.44286 -66.30699 14369 ft 286 kts 214°
2026-04-26 15:29 -17.45814 -66.32038 15176 ft 287 kts 223°
2026-04-26 15:29 -17.48865 -66.34862 16791 ft 297 kts 223°
2026-04-26 15:30 -17.52003 -66.37805 18330 ft 307 kts 223°
2026-04-26 15:30 -17.53597 -66.39308 19013 ft 310 kts 223°
2026-04-26 15:30 -17.55189 -66.40857 19656 ft 315 kts 229°
2026-04-26 15:31 -17.56372 -66.42787 20303 ft 316 kts 248°
2026-04-26 15:31 -17.56900 -66.47511 20888 ft 348 kts 281°
2026-04-26 15:31 -17.56161 -66.49983 21068 ft 366 kts 296°
2026-04-26 15:32 -17.53935 -66.53241 21239 ft 392 kts 313°
2026-04-26 15:32 -17.53889 -66.53293 21243 ft 393 kts 313°
2026-04-26 15:32 -17.51968 -66.55405 21440 ft 407 kts 315°
2026-04-26 15:33 -17.49941 -66.57512 21894 ft 411 kts 316°
2026-04-26 15:33 -17.47875 -66.59599 22437 ft 414 kts 316°
2026-04-26 15:33 -17.45773 -66.61691 22915 ft 418 kts 317°
2026-04-26 15:33 -17.43650 -66.63785 23416 ft 421 kts 317°
2026-04-26 15:34 -17.41500 -66.65895 23884 ft 424 kts 317°
2026-04-26 15:34 -17.39340 -66.68011 24280 ft 427 kts 317°
2026-04-26 15:34 -17.37159 -66.70146 24684 ft 430 kts 317°
2026-04-26 15:34 -17.34967 -66.72291 25098 ft 432 kts 317°
2026-04-26 15:35 -17.32770 -66.74463 25490 ft 436 kts 314°
2026-04-26 15:35 -17.30961 -66.77006 25890 ft 438 kts 298°
2026-04-26 15:35 -17.29870 -66.79945 26278 ft 441 kts 283°
2026-04-26 15:35 -17.29432 -66.83136 26668 ft 445 kts 276°
2026-04-26 15:36 -17.29141 -66.86406 27044 ft 448 kts 275°
2026-04-26 15:36 -17.28893 -66.89623 27431 ft 450 kts 275°
2026-04-26 15:36 -17.28660 -66.92898 27828 ft 452 kts 274°
2026-04-26 15:36 -17.28440 -66.96190 28204 ft 455 kts 274°
2026-04-26 15:37 -17.28224 -66.99502 28579 ft 458 kts 274°
2026-04-26 15:37 -17.28006 -67.02834 28944 ft 460 kts 274°
2026-04-26 15:37 -17.27788 -67.06184 29299 ft 463 kts 274°
2026-04-26 15:37 -17.27568 -67.09545 29664 ft 465 kts 274°
2026-04-26 15:38 -17.27346 -67.12939 30015 ft 467 kts 274°
2026-04-26 15:38 -17.27122 -67.16342 30342 ft 470 kts 274°
2026-04-26 15:38 -17.26897 -67.19764 30618 ft 473 kts 274°
2026-04-26 15:38 -17.26670 -67.23200 30916 ft 474 kts 274°
2026-04-26 15:39 -17.26442 -67.26644 31214 ft 476 kts 274°
2026-04-26 15:39 -17.26212 -67.30108 31547 ft 477 kts 274°
2026-04-26 15:39 -17.25981 -67.33570 31917 ft 476 kts 274°
2026-04-26 15:39 -17.25828 -67.35864 32175 ft 476 kts 274°
2026-04-26 15:40 -17.25522 -67.40443 32697 ft 475 kts 274°
2026-04-26 15:40 -17.25292 -67.43882 33097 ft 474 kts 274°
2026-04-26 15:40 -17.25061 -67.47315 33511 ft 473 kts 274°
2026-04-26 15:40 -17.24829 -67.50746 33934 ft 472 kts 275°
2026-04-26 15:41 -17.24598 -67.54169 34180 ft 472 kts 275°
2026-04-26 15:41 -17.24367 -67.57585 34194 ft 469 kts 275°
2026-04-26 15:41 -17.23904 -67.64396 34178 ft 468 kts 275°
2026-04-26 15:42 -17.23439 -67.71192 34167 ft 469 kts 275°
2026-04-26 15:42 -17.22972 -67.77994 34154 ft 469 kts 275°
2026-04-26 15:43 -17.22503 -67.84793 34142 ft 469 kts 275°
2026-04-26 15:44 -17.21794 -67.95003 34130 ft 470 kts 275°
2026-04-26 15:44 -17.21080 -68.05204 34123 ft 470 kts 275°
2026-04-26 15:45 -17.20358 -68.15461 34123 ft 471 kts 275°
2026-04-26 15:46 -17.19634 -68.25662 34118 ft 470 kts 275°
2026-04-26 15:46 -17.19226 -68.31377 34115 ft 471 kts 275°
2026-04-26 15:47 -17.18411 -68.42736 34114 ft 471 kts 275°
2026-04-26 15:48 -17.17917 -68.49563 34117 ft 471 kts 275°
2026-04-26 15:48 -17.17421 -68.56406 34112 ft 471 kts 275°
2026-04-26 15:49 -17.16922 -68.63244 34109 ft 472 kts 275°
2026-04-26 15:49 -17.16421 -68.70089 34110 ft 472 kts 275°
2026-04-26 15:50 -17.15917 -68.76932 34104 ft 472 kts 275°
2026-04-26 15:50 -17.15411 -68.83777 34105 ft 472 kts 275°
2026-04-26 15:51 -17.14902 -68.90630 34101 ft 472 kts 275°
2026-04-26 15:51 -17.14394 -68.97430 34102 ft 472 kts 275°
2026-04-26 15:52 -17.13881 -69.04283 34106 ft 472 kts 275°
2026-04-26 15:52 -17.13365 -69.11130 34110 ft 472 kts 275°
2026-04-26 15:53 -17.12846 -69.17980 34104 ft 472 kts 275°
2026-04-26 15:53 -17.12326 -69.24823 34111 ft 472 kts 275°
2026-04-26 15:54 -17.11804 -69.31667 34113 ft 472 kts 275°
2026-04-26 15:54 -17.11279 -69.38515 34119 ft 472 kts 275°
2026-04-26 15:55 -17.10752 -69.45357 34121 ft 472 kts 275°
2026-04-26 15:55 -17.10223 -69.52200 34125 ft 472 kts 275°
2026-04-26 15:56 -17.09691 -69.59052 34131 ft 472 kts 275°
2026-04-26 15:56 -17.09156 -69.65897 34140 ft 472 kts 275°
2026-04-26 15:57 -17.08623 -69.72696 34143 ft 472 kts 275°
2026-04-26 15:57 -17.08085 -69.79542 34155 ft 472 kts 275°
2026-04-26 15:58 -17.07635 -69.85229 34158 ft 472 kts 275°
2026-04-26 15:58 -17.07092 -69.92069 34171 ft 472 kts 275°
2026-04-26 15:59 -17.06547 -69.98909 34175 ft 471 kts 275°
2026-04-26 15:59 -17.06000 -70.05744 34190 ft 471 kts 275°
2026-04-26 16:00 -17.05451 -70.12578 34207 ft 472 kts 275°
2026-04-26 16:00 -17.04900 -70.19412 34215 ft 472 kts 276°
2026-04-26 16:01 -17.04350 -70.26197 34223 ft 471 kts 276°
2026-04-26 16:01 -17.03794 -70.33033 34233 ft 471 kts 276°
2026-04-26 16:02 -17.03236 -70.39860 34237 ft 471 kts 276°
2026-04-26 16:02 -17.02676 -70.46689 34241 ft 471 kts 276°
2026-04-26 16:03 -17.02114 -70.53516 34245 ft 471 kts 276°
2026-04-26 16:03 -17.01548 -70.60348 34231 ft 472 kts 276°
2026-04-26 16:04 -17.00984 -70.67139 34232 ft 472 kts 276°
2026-04-26 16:04 -17.00699 -70.70566 33744 ft 465 kts 276°
2026-04-26 16:04 -17.00418 -70.73945 32765 ft 469 kts 275°
2026-04-26 16:04 -17.00138 -70.77305 31851 ft 472 kts 275°
2026-04-26 16:05 -16.99852 -70.80729 31039 ft 473 kts 275°
2026-04-26 16:05 -16.99564 -70.84151 30189 ft 474 kts 274°
2026-04-26 16:05 -16.99274 -70.87591 29129 ft 477 kts 275°
2026-04-26 16:05 -16.98983 -70.91049 28144 ft 478 kts 275°
2026-04-26 16:06 -16.98690 -70.94518 27152 ft 479 kts 275°
2026-04-26 16:06 -16.98398 -70.97976 26363 ft 477 kts 275°
2026-04-26 16:06 -16.98107 -71.01410 25617 ft 471 kts 275°
2026-04-26 16:06 -16.97817 -71.04828 24847 ft 474 kts 275°
2026-04-26 16:07 -16.97303 -71.08217 23969 ft 473 kts 286°
2026-04-26 16:07 -16.96058 -71.11380 23138 ft 470 kts 300°
2026-04-26 16:07 -16.94126 -71.14109 22411 ft 464 kts 313°
2026-04-26 16:07 -16.91904 -71.16518 21695 ft 458 kts 315°
2026-04-26 16:08 -16.89648 -71.18855 20974 ft 454 kts 316°
2026-04-26 16:08 -16.87390 -71.21139 20274 ft 450 kts 316°
2026-04-26 16:08 -16.85158 -71.23370 19575 ft 447 kts 316°
2026-04-26 16:08 -16.82908 -71.25601 18873 ft 444 kts 317°
2026-04-26 16:09 -16.80670 -71.27813 18124 ft 442 kts 317°
2026-04-26 16:09 -16.78443 -71.30013 17412 ft 438 kts 317°
2026-04-26 16:09 -16.76245 -71.32182 16718 ft 434 kts 317°
2026-04-26 16:09 -16.74061 -71.34337 16037 ft 430 kts 317°
2026-04-26 16:10 -16.71892 -71.36477 15378 ft 427 kts 317°
2026-04-26 16:10 -16.69750 -71.38590 14952 ft 418 kts 317°
2026-04-26 16:10 -16.67665 -71.40645 14652 ft 407 kts 317°
2026-04-26 16:10 -16.65638 -71.42642 14405 ft 395 kts 317°
2026-04-26 16:11 -16.63668 -71.44584 14205 ft 385 kts 317°
2026-04-26 16:11 -16.61741 -71.46481 13866 ft 378 kts 317°
2026-04-26 16:11 -16.59832 -71.48361 13472 ft 374 kts 317°
2026-04-26 16:11 -16.57966 -71.50197 13264 ft 363 kts 317°
2026-04-26 16:12 -16.56159 -71.51976 13108 ft 352 kts 317°
2026-04-26 16:12 -16.54407 -71.53699 12970 ft 341 kts 317°
2026-04-26 16:12 -16.51059 -71.56990 12684 ft 318 kts 317°
2026-04-26 16:13 -16.49496 -71.58528 12556 ft 300 kts 317°
2026-04-26 16:13 -16.48023 -71.59975 12418 ft 283 kts 317°
2026-04-26 16:13 -16.46655 -71.61319 12317 ft 265 kts 317°
2026-04-26 16:13 -16.45351 -71.62600 12169 ft 250 kts 317°
2026-04-26 16:14 -16.44124 -71.63805 12031 ft 235 kts 316°
2026-04-26 16:14 -16.42986 -71.64923 11904 ft 216 kts 316°
2026-04-26 16:14 -16.40946 -71.66925 11648 ft 195 kts 316°
2026-04-26 16:15 -16.39936 -71.67916 11573 ft 203 kts 316°
2026-04-26 16:15 -16.38894 -71.68939 11407 ft 207 kts 316°
2026-04-26 16:15 -16.37850 -71.69962 11126 ft 206 kts 317°
2026-04-26 16:16 -16.35212 -71.70770 10691 ft 204 kts 11°
2026-04-26 16:16 -16.33971 -71.70138 10458 ft 196 kts 45°
2026-04-26 16:16 -16.33344 -71.68974 10339 ft 179 kts 82°
2026-04-26 16:16 -16.33429 -71.67716 10243 ft 175 kts 102°
2026-04-26 16:17 -16.33572 -71.66474 10083 ft 175 kts 94°
2026-04-26 16:17 -16.33624 -71.65207 9845 ft 176 kts 94°
2026-04-26 16:17 -16.33691 -71.63941 9593 ft 175 kts 95°
2026-04-26 16:17 -16.33760 -71.62674 9291 ft 174 kts 96°
2026-04-26 16:18 -16.33840 -71.61410 8885 ft 175 kts 96°
2026-04-26 16:18 -16.33961 -71.58867 8419 ft 177 kts 94°
2026-04-26 16:19 -16.34087 -71.56496 8433 ft 148 kts 96°
2026-04-26 16:19 -16.34181 -71.55400 8687 ft 153 kts 103°
2026-04-26 16:19 -16.34870 -71.53641 9581 ft 167 kts 126°
2026-04-26 16:20 -16.35933 -71.52416 10035 ft 174 kts 142°
2026-04-26 16:20 -16.37733 -71.50654 9972 ft 191 kts 109°
2026-04-26 16:20 -16.37923 -71.49269 10042 ft 198 kts 93°
2026-04-26 16:21 -16.38001 -71.47918 10964 ft 168 kts 98°
2026-04-26 16:21 -16.38183 -71.46843 11932 ft 145 kts 101°
2026-04-26 16:21 -16.38395 -71.45734 12233 ft 163 kts 101°
2026-04-26 16:21 -16.38623 -71.44544 12595 ft 177 kts 101°
2026-04-26 16:22 -16.38876 -71.43225 12988 ft 194 kts 101°
2026-04-26 16:22 -16.39151 -71.41785 13371 ft 212 kts 101°
2026-04-26 16:22 -16.39450 -71.40219 13696 ft 228 kts 101°
2026-04-26 16:22 -16.39762 -71.38580 13888 ft 230 kts 100°
2026-04-26 16:23 -16.40066 -71.36994 13940 ft 220 kts 101°
2026-04-26 16:23 -16.40694 -71.35587 13873 ft 215 kts 135°
2026-04-26 16:23 -16.42013 -71.34972 13797 ft 212 kts 180°
2026-04-26 16:23 -16.43405 -71.35394 13953 ft 212 kts 210°
2026-04-26 16:24 -16.44604 -71.36331 14036 ft 218 kts 227°
2026-04-26 16:24 -16.45317 -71.37698 13925 ft 216 kts 259°
2026-04-26 16:24 -16.45252 -71.39238 13892 ft 214 kts 290°
2026-04-26 16:24 -16.44702 -71.40685 13987 ft 217 kts 292°
2026-04-26 16:25 -16.44163 -71.42153 14002 ft 218 kts 291°
2026-04-26 16:25 -16.43638 -71.43632 14001 ft 218 kts 291°
2026-04-26 16:25 -16.43122 -71.45114 13973 ft 218 kts 291°
2026-04-26 16:25 -16.42609 -71.46597 13974 ft 218 kts 291°
2026-04-26 16:26 -16.42099 -71.48086 13991 ft 218 kts 291°
2026-04-26 16:26 -16.41763 -71.49070 13989 ft 218 kts 291°
2026-04-26 16:26 -16.41088 -71.51062 13992 ft 218 kts 291°
2026-04-26 16:26 -16.40583 -71.52549 13994 ft 218 kts 290°
2026-04-26 16:27 -16.40080 -71.54039 14005 ft 218 kts 290°
2026-04-26 16:27 -16.39576 -71.55530 14003 ft 218 kts 290°
2026-04-26 16:27 -16.39071 -71.57028 14006 ft 219 kts 290°
2026-04-26 16:27 -16.38574 -71.58499 14005 ft 218 kts 290°
2026-04-26 16:28 -16.38071 -71.59993 13988 ft 218 kts 290°
2026-04-26 16:28 -16.37566 -71.61479 13973 ft 218 kts 290°
2026-04-26 16:28 -16.37062 -71.62967 13974 ft 217 kts 290°
2026-04-26 16:28 -16.36559 -71.64451 14018 ft 218 kts 290°
2026-04-26 16:29 -16.36056 -71.65939 14004 ft 218 kts 290°
2026-04-26 16:29 -16.35553 -71.67428 14004 ft 218 kts 291°
2026-04-26 16:29 -16.34793 -71.68766 13957 ft 214 kts 317°
2026-04-26 16:29 -16.33574 -71.69586 13937 ft 209 kts 341°
2026-04-26 16:30 -16.32131 -71.69734 13609 ft 209 kts 15°
2026-04-26 16:30 -16.30942 -71.68965 13164 ft 207 kts 52°
2026-04-26 16:30 -16.30436 -71.67594 12719 ft 206 kts 88°
2026-04-26 16:30 -16.30763 -71.66164 12300 ft 206 kts 121°
2026-04-26 16:31 -16.31757 -71.65117 11879 ft 205 kts 149°
2026-04-26 16:31 -16.32941 -71.64300 11469 ft 205 kts 134°
2026-04-26 16:31 -16.33583 -71.63001 11036 ft 204 kts 102°
2026-04-26 16:31 -16.33737 -71.61537 10611 ft 204 kts 96°
2026-04-26 16:32 -16.33823 -71.60075 10342 ft 198 kts 95°
2026-04-26 16:32 -16.34142 -71.59206 10490 ft 187 kts 141°
2026-04-26 16:32 -16.35779 -71.58703 10917 ft 204 kts 191°
2026-04-26 16:32 -16.37145 -71.59386 10808 ft 236 kts 215°
2026-04-26 16:33 -16.38332 -71.60607 11009 ft 246 kts 239°
2026-04-26 16:33 -16.38807 -71.62404 10729 ft 279 kts 268°
2026-04-26 16:33 -16.38831 -71.64487 10542 ft 296 kts 271°
2026-04-26 16:33 -16.38388 -71.66658 10183 ft 318 kts 285°
2026-04-26 16:34 -16.37695 -71.68909 10090 ft 325 kts 285°
2026-04-26 16:34 -16.36660 -71.71064 9844 ft 339 kts 306°
2026-04-26 16:34 -16.34921 -71.72721 9853 ft 342 kts 329°
2026-04-26 16:34 -16.32726 -71.73543 9829 ft 344 kts 346°
2026-04-26 16:35 -16.30686 -71.74748 9993 ft 339 kts 310°
2026-04-26 16:35 -16.29901 -71.76946 9973 ft 333 kts 285°
2026-04-26 16:35 -16.28618 -71.78863 10254 ft 319 kts 311°
2026-04-26 16:35 -16.27233 -71.80636 10621 ft 321 kts 307°
2026-04-26 16:36 -16.25481 -71.82214 10529 ft 351 kts 334°
2026-04-26 16:36 -16.23078 -71.82592 11075 ft 350 kts
2026-04-26 16:36 -16.21082 -71.81350 11836 ft 337 kts 54°
2026-04-26 16:36 -16.19586 -71.79487 12279 ft 337 kts 38°
2026-04-26 16:37 -16.17634 -71.78503 13158 ft 291 kts
2026-04-26 16:37 -16.17619 -71.78500 13160 ft 290 kts